When you browse on this site, cookies collect data to enhance your experience and personalize the content and advertising you see.
Visit our Privacy Policy to learn more. By continuing to use the site, you agree to this use of cookies and data.
  • In Deutschland
  • Länderverzeichnis
  • Für 7 Tage
  • Wassertemperatur
  • Wetterkarte
  • Widgets
  • user-avatar
    Anmelden

    Stündliche Wetter Antwerpen

    Heute, 26 Mai, Dienstag

    Zeit Temperatur Niederschläge Wind Luftdruck Luftfeuchtigkeit
    00:00 +12°C° 0 mm 2 m/S 775 mmHg 85%
    01:00 +12°C° 0 mm 2 m/S 775 mmHg 87%
    02:00 +12°C° 0 mm 1 m/S 775 mmHg 89%
    03:00 +11°C° 0 mm 1 m/S 775 mmHg 90%
    04:00 +12°C° 0 mm 1 m/S 775 mmHg 87%
    05:00 +13°C° 0 mm 1 m/S 775 mmHg 83%
    06:00 +14°C° 0 mm 0 m/S 776 mmHg 84%
    07:00 +18°C° 0 mm 1 m/S 776 mmHg 74%
    08:00 +20°C° 0 mm 1 m/S 776 mmHg 64%
    09:00 +21°C° 0 mm 1 m/S 775 mmHg 54%
    10:00 +22°C° 0 mm 1 m/S 775 mmHg 52%
    11:00 +23°C° 0 mm 2 m/S 775 mmHg 49%
    12:00 +24°C° 0 mm 3 m/S 775 mmHg 47%
    13:00 +24°C° 0 mm 3 m/S 775 mmHg 48%
    14:00 +24°C° 0 mm 3 m/S 775 mmHg 49%
    15:00 +23°C° 0 mm 4 m/S 775 mmHg 50%
    16:00 +22°C° 0 mm 4 m/S 775 mmHg 55%
    17:00 +21°C° 0 mm 3 m/S 774 mmHg 59%
    18:00 +20°C° 0 mm 3 m/S 774 mmHg 64%
    19:00 +18°C° 0 mm 3 m/S 775 mmHg 69%
    20:00 +17°C° 0 mm 2 m/S 775 mmHg 74%
    21:00 +15°C° 0 mm 2 m/S 775 mmHg 80%
    22:00 +15°C° 0 mm 2 m/S 775 mmHg 82%
    23:00 +14°C° 0 mm 2 m/S 775 mmHg 84%

    Morgen, 27 Mai, Mittwoch

    Zeit Temperatur Niederschläge Wind Luftdruck Luftfeuchtigkeit
    00:00 +14°C° 0 mm 1 m/S 775 mmHg 85%
    01:00 +13°C° 0 mm 1 m/S 775 mmHg 86%
    02:00 +13°C° 0 mm 1 m/S 775 mmHg 87%
    03:00 +12°C° 0 mm 1 m/S 775 mmHg 87%
    04:00 +14°C° 0 mm 1 m/S 775 mmHg 83%
    05:00 +15°C° 0 mm 1 m/S 775 mmHg 78%
    06:00 +16°C° 0 mm 1 m/S 775 mmHg 73%
    07:00 +18°C° 0 mm 1 m/S 775 mmHg 69%
    08:00 +18°C° 0 mm 2 m/S 775 mmHg 65%
    09:00 +20°C° 0 mm 2 m/S 775 mmHg 60%
    10:00 +21°C° 0 mm 3 m/S 775 mmHg 57%
    11:00 +22°C° 0 mm 3 m/S 775 mmHg 54%
    12:00 +22°C° 0 mm 4 m/S 774 mmHg 52%
    13:00 +22°C° 0 mm 4 m/S 774 mmHg 51%
    14:00 +22°C° 0 mm 5 m/S 774 mmHg 51%
    15:00 +22°C° 0 mm 5 m/S 774 mmHg 50%
    16:00 +20°C° 0 mm 5 m/S 774 mmHg 52%
    17:00 +19°C° 0 mm 4 m/S 774 mmHg 54%
    18:00 +18°C° 0 mm 4 m/S 774 mmHg 56%
    19:00 +17°C° 0 mm 4 m/S 774 mmHg 62%
    20:00 +14°C° 0 mm 3 m/S 775 mmHg 68%
    21:00 +12°C° 0 mm 3 m/S 775 mmHg 74%
    22:00 +12°C° 0 mm 3 m/S 775 mmHg 75%
    23:00 +11°C° 0 mm 4 m/S 775 mmHg 77%

    übermorgen, 28 Mai, Donnerstag

    Zeit Temperatur Niederschläge Wind Luftdruck Luftfeuchtigkeit
    00:00 +11°C° 0 mm 4 m/S 775 mmHg 79%
    01:00 +10°C° 0 mm 4 m/S 775 mmHg 77%
    02:00 +10°C° 0 mm 4 m/S 775 mmHg 76%
    03:00 +8°C° 0 mm 4 m/S 775 mmHg 75%
    04:00 +10°C° 0 mm 4 m/S 775 mmHg 73%
    05:00 +11°C° 0 mm 4 m/S 775 mmHg 71%
    06:00 +12°C° 0 mm 4 m/S 775 mmHg 70%
    07:00 +13°C° 0 mm 5 m/S 775 mmHg 64%
    08:00 +15°C° 0 mm 5 m/S 774 mmHg 58%
    09:00 +16°C° 0 mm 5 m/S 774 mmHg 52%
    10:00 +17°C° 0 mm 5 m/S 774 mmHg 49%
    11:00 +19°C° 0 mm 5 m/S 774 mmHg 47%
    12:00 +20°C° 0 mm 5 m/S 773 mmHg 44%
    13:00 +21°C° 0 mm 5 m/S 773 mmHg 44%
    14:00 +21°C° 0 mm 5 m/S 772 mmHg 44%
    15:00 +21°C° 0 mm 5 m/S 772 mmHg 44%
    16:00 +20°C° 0 mm 4 m/S 772 mmHg 49%
    17:00 +20°C° 0 mm 4 m/S 772 mmHg 54%
    18:00 +19°C° 0 mm 4 m/S 772 mmHg 58%
    19:00 +17°C° 0 mm 4 m/S 772 mmHg 64%
    20:00 +14°C° 0 mm 4 m/S 772 mmHg 69%
    21:00 +12°C° 0 mm 4 m/S 772 mmHg 74%
    22:00 +12°C° 0 mm 4 m/S 772 mmHg 75%
    23:00 +11°C° 0 mm 3 m/S 772 mmHg 76%

    29 Mai, Freitag

    Zeit Temperatur Niederschläge Wind Luftdruck Luftfeuchtigkeit
    00:00 +10°C° 0 mm 3 m/S 772 mmHg 77%
    01:00 +10°C° 0 mm 3 m/S 772 mmHg 79%
    02:00 +9°C° 0 mm 3 m/S 771 mmHg 80%
    03:00 +9°C° 0 mm 3 m/S 771 mmHg 82%
    04:00 +10°C° 0 mm 3 m/S 771 mmHg 78%
    05:00 +11°C° 0 mm 3 m/S 771 mmHg 75%
    06:00 +12°C° 0 mm 3 m/S 771 mmHg 72%
    07:00 +13°C° 0 mm 3 m/S 771 mmHg 63%
    08:00 +16°C° 0 mm 3 m/S 771 mmHg 54%
    09:00 +18°C° 0 mm 4 m/S 771 mmHg 45%
    10:00 +19°C° 0 mm 4 m/S 770 mmHg 43%
    11:00 +20°C° 0 mm 4 m/S 770 mmHg 42%
    12:00 +21°C° 0 mm 4 m/S 769 mmHg 41%
    13:00 +21°C° 0 mm 4 m/S 769 mmHg 43%
    14:00 +21°C° 0 mm 4 m/S 769 mmHg 44%
    15:00 +21°C° 0 mm 4 m/S 768 mmHg 46%
    16:00 +21°C° 0 mm 4 m/S 768 mmHg 50%
    17:00 +20°C° 0 mm 4 m/S 768 mmHg 55%
    18:00 +19°C° 0 mm 3 m/S 768 mmHg 59%
    19:00 +18°C° 0 mm 3 m/S 768 mmHg 65%
    20:00 +16°C° 0 mm 3 m/S 768 mmHg 71%
    21:00 +13°C° 0 mm 3 m/S 768 mmHg 77%
    22:00 +13°C° 0 mm 3 m/S 768 mmHg 80%
    23:00 +12°C° 0 mm 3 m/S 768 mmHg 83%

    30 Mai, Samstag

    Zeit Temperatur Niederschläge Wind Luftdruck Luftfeuchtigkeit
    00:00 +11°C° 0 mm 3 m/S 768 mmHg 86%
    01:00 +11°C° 0 mm 3 m/S 768 mmHg 87%
    02:00 +11°C° 0 mm 3 m/S 768 mmHg 88%
    03:00 +10°C° 0 mm 3 m/S 768 mmHg 90%
    04:00 +11°C° 0 mm 3 m/S 768 mmHg 85%
    05:00 +12°C° 0 mm 3 m/S 768 mmHg 81%
    06:00 +13°C° 0 mm 3 m/S 768 mmHg 77%
    07:00 +16°C° 0 mm 3 m/S 768 mmHg 70%
    08:00 +18°C° 0 mm 3 m/S 768 mmHg 63%
    09:00 +20°C° 0 mm 3 m/S 767 mmHg 55%
    10:00 +21°C° 0 mm 3 m/S 767 mmHg 52%
    11:00 +22°C° 0 mm 3 m/S 767 mmHg 48%
    12:00 +24°C° 0 mm 3 m/S 767 mmHg 45%
    13:00 +24°C° 0 mm 3 m/S 766 mmHg 45%
    14:00 +23°C° 0 mm 4 m/S 766 mmHg 45%
    15:00 +23°C° 0 mm 4 m/S 766 mmHg 45%
    16:00 +22°C° 0 mm 4 m/S 766 mmHg 50%
    17:00 +22°C° 0 mm 4 m/S 766 mmHg 54%
    18:00 +21°C° 0 mm 4 m/S 765 mmHg 59%
    19:00 +19°C° 0 mm 4 m/S 766 mmHg 64%
    20:00 +17°C° 0 mm 3 m/S 766 mmHg 69%
    21:00 +16°C° 0 mm 3 m/S 766 mmHg 74%
    22:00 +14°C° 0 mm 3 m/S 766 mmHg 76%
    23:00 +13°C° 0 mm 3 m/S 766 mmHg 77%

    31 Mai, Sonntag

    Zeit Temperatur Niederschläge Wind Luftdruck Luftfeuchtigkeit
    00:00 +12°C° 0 mm 3 m/S 766 mmHg 78%
    01:00 +12°C° 0 mm 3 m/S 766 mmHg 80%
    02:00 +11°C° 0 mm 3 m/S 766 mmHg 82%
    03:00 +11°C° 0 mm 3 m/S 765 mmHg 84%
    04:00 +12°C° 0 mm 3 m/S 765 mmHg 80%
    05:00 +13°C° 0 mm 3 m/S 765 mmHg 77%
    06:00 +14°C° 0 mm 3 m/S 766 mmHg 74%
    07:00 +17°C° 0 mm 3 m/S 765 mmHg 67%
    08:00 +19°C° 0 mm 4 m/S 765 mmHg 60%
    09:00 +21°C° 0 mm 4 m/S 765 mmHg 53%
    10:00 +22°C° 0 mm 4 m/S 765 mmHg 50%
    11:00 +23°C° 0 mm 4 m/S 765 mmHg 47%
    12:00 +23°C° 0 mm 4 m/S 765 mmHg 43%
    13:00 +23°C° 0 mm 4 m/S 764 mmHg 42%
    14:00 +23°C° 0 mm 4 m/S 764 mmHg 41%
    15:00 +25°C° 0 mm 4 m/S 764 mmHg 40%
    16:00 +23°C° 0 mm 4 m/S 764 mmHg 43%
    17:00 +22°C° 0 mm 4 m/S 764 mmHg 47%
    18:00 +21°C° 0 mm 4 m/S 764 mmHg 51%
    19:00 +19°C° 0 mm 4 m/S 764 mmHg 54%
    20:00 +17°C° 0 mm 4 m/S 764 mmHg 57%
    21:00 +15°C° 0 mm 4 m/S 764 mmHg 59%
    22:00 +14°C° 0 mm 3 m/S 764 mmHg 61%
    23:00 +13°C° 0 mm 3 m/S 764 mmHg 63%
    Mehr zeigen